CAPE
0 0 0 0 0 0 0 0 178 70 161 56 13 0 0 21 25 54 352 285 238 1 0 0 0 0 133 74 34 890 946 978 837 763 1383 319 337 1186 1818 1337 1020 1047 1003 2341
0 0 0 0 0 0 0 0 176 79 117 10 3 26 39 6 43 180 144 364 358 36 0 0 0 0 8 103 26 1115 1001 1564 606 1141 1062 592 605 1364 1169 1036 743 1054 1558 1953
0 0 0 0 0 0 0 0 144 180 190 69 62 26 75 13 136 391 228 257 522 168 7 7 0 0 0 137 90 1124 1193 1427 1199 1049 1281 1740 1855 1223 1191 1176 809 1196 1560 1879
0 0 0 0 0 0 0 0 27 71 27 59 109 77 174 59 45 617 147 33 422 324 48 30 0 0 0 171 293 1078 1052 1022 995 1599 1215 1125 1261 1079 899 885 963 1160 1552 2393
0 0 0 0 0 0 0 0 0 43 0 0 144 34 198 116 43 184 410 268 510 427 115 50 19 0 0 119 422 1082 1498 1189 433 1465 2011 1652 2225 917 1434 1399 1267 1256 1476 1763
0 0 0 0 0 0 0 0 0 4 0 0 1 35 16 205 284 219 332 716 776 526 300 149 88 6 0 15 415 998 1744 1436 944 1396 1856 2135 1028 1933 1474 1561 1648 1695 1512 1791
0 0 0 0 0 0 0 0 0 1 1 2 20 0 150 361 347 129 19 919 961 783 552 374 184 244 11 0 145 957 1249 1740 1313 1603 1955 1854 1403 1993 1754 1384 1813 1495 1259 1603
0 0 0 0 0 0 0 0 0 17 6 28 9 5 54 147 70 106 85 303 947 928 748 520 407 442 261 1 0 700 851 1803 1339 1823 1716 1928 2443 2423 2160 1716 1137 1308 1328 1506
0 0 0 0 0 0 0 0 0 0 0 39 27 3 157 105 55 234 393 122 799 976 906 686 674 550 409 69 2 265 730 1210 1451 1834 1440 1888 2179 2034 1893 2051 1508 2114 2319 1805
0 0 0 0 0 0 0 0 0 4 4 29 3 10 41 55 2 27 84 291 782 586 663 931 793 714 560 397 36 109 815 939 1578 1540 1490 1709 1648 2245 2102 2746 1679 1322 2346 2458
0 0 0 0 0 0 0 0 0 0 0 0 0 0 1 0 0 0 6 282 239 32 10 332 979 904 693 569 150 198 1056 1077 1615 1228 1681 1624 1474 1711 1945 2082 2775 2658 1467 2644
0 0 0 0 0 0 0 0 0 0 0 0 0 0 12 0 0 0 0 0 0 11 293 791 904 999 884 687 693 271 1309 1418 1629 1516 1590 1622 1889 1397 1561 1842 2025 3165 1889 2774
0 0 0 0 0 0 0 0 0 0 0 0 1 7 0 29 0 0 26 115 213 403 816 1094 1067 1134 1056 817 753 784 1509 1544 1706 1850 1813 1986 1997 1915 1584 1204 1800 2347 2449 2013
0 0 0 0 0 0 0 0 0 0 0 0 0 19 23 0 0 0 12 122 1161 1282 1445 1522 1484 1345 1093 914 730 768 989 1666 1864 1939 1899 2125 2048 2076 1853 1555 1237 1966 2607 2180
0 0 0 0 0 0 0 0 0 0 0 0 0 204 603 5 0 233 518 1274 1214 1201 1300 1296 1242 1281 1772 1479 909 763 777 1688 1769 1901 1785 1725 1936 1992 1836 1607 1597 1415 2365 2286
0 0 0 0 0 0 0 0 0 0 0 0 26 947 802 925 1418 1146 1093 1035 964 929 1000 1056 1070 1031 1028 1376 1683 1611 956 967 1597 1601 1722 1613 2019 1889 1762 1528 1626 1840 1629 2259
0 2 1 0 1 0 0 0 0 0 343 408 541 975 733 957 1068 773 863 770 748 685 609 591 659 756 711 789 966 1569 2155 1394 1470 1608 1629 1796 1768 2151 1813 1610 1596 1737 1962 1638
10 168 59 0 6 38 5 298 535 502 565 588 627 575 874 561 365 296 569 460 316 270 263 202 207 186 331 532 830 1294 1964 2266 1664 1850 1756 1732 2138 2011 2097 1727 1659 1703 1657 2039
0 10 38 6 18 34 226 188 112 459 152 241 160 224 406 317 198 79 122 218 225 206 134 62 12 23 147 401 876 1121 1392 2091 2717 1793 1912 2139 2090 2205 2080 2019 1822 1688 1923 1661
0 0 0 0 20 106 196 101 104 311 293 217 104 201 107 376 92 104 155 70 60 56 20 0 0 0 0 1 5 187 782 1602 2771 2502 1908 2078 2375 2343 2328 2248 2079 2242 1963 2078
0 4 0 1 7 505 162 307 14 287 257 340 176 216 194 159 143 206 238 92 76 23 0 0 0 0 2 1 0 0 34 316 281 699 2436 2143 2198 2510 2446 2473 2481 2218 2314 2487
17 21 0 15 0 182 424 467 279 151 171 247 270 237 282 220 183 88 96 25 9 0 0 0 0 0 1 1 1 1 1 0 0 9 1052 2753 2410 2094 2581 2520 2573 2755 2640 2595
102 355 617 631 612 599 427 501 314 197 141 157 171 124 197 190 80 10 2 1 0 0 0 0 0 0 0 0 1 2 1 2 1 0 683 2710 2888 2695 2505 2459 2728 2635 2790 2905
0 0 160 155 8 4 9 412 446 362 114 124 131 147 194 199 118 1 0 0 0 0 0 0 0 0 0 0 0 0 0 0 1 2 383 2216 2819 3192 2840 2896 2731 2756 2699 2776
19 0 0 0 0 5 0 0 0 0 0 1 12 61 82 294 157 25 2 3 0 0 0 0 0 0 0 0 0 1 0 0 0 5 369 1529 2487 3026 3032 2990 2942 2760 2707 2791
0 0 0 0 0 0 0 0 0 0 0 0 0 14 22 213 166 58 1 0 0 0 0 0 0 0 0 0 0 0 0 0 1 2 41 231 890 1357 1878 2611 2814 2796 2488 2510
CIN
-0 -0 -0 -0 -0 -0 -0 -0 -58 -176 -202 -244 -176 -0 -0 -251 -228 -177 -61 -68 -48 -15 -0 -0 -0 -0 -136 -160 -124 -33 -58 -74 -59 -66 -48 -67 -58 -48 -48 -75 -75 -51 -45 -30
-0 -0 -0 -0 -0 -0 -0 -0 -14 -169 -237 -244 -285 -313 -339 -313 -224 -135 -216 -68 -73 -147 -0 -0 -0 -0 -41 -193 -194 -31 -48 -37 -61 -78 -73 -80 -73 -59 -82 -90 -113 -61 -46 -40
-0 -0 -0 -0 -0 -0 -0 -0 -30 -26 -159 -207 -184 -260 -284 -229 -151 -183 -244 -69 -73 -111 -265 -308 -0 -0 -0 -203 -206 -61 -59 -43 -72 -77 -58 -51 -70 -71 -91 -95 -96 -59 -32 -43
-0 -0 -0 -0 -0 -0 -0 -0 -10 -13 -72 -82 -152 -125 -157 -213 -248 -157 -336 -385 -64 -128 -203 -249 -0 -0 -0 -193 -153 -69 -74 -70 -61 -55 -48 -52 -45 -63 -97 -100 -111 -78 -34 -27
-0 -0 -0 -0 -0 -0 -0 -0 -0 -8 -6 -0 -119 -59 -129 -182 -224 -283 -226 -244 -90 -102 -166 -215 -380 -0 -0 -226 -149 -69 -51 -46 -102 -62 -50 -45 -24 -56 -93 -87 -100 -79 -52 -43
-0 -0 -0 -0 -0 -0 -0 -0 -0 -11 -14 -0 -19 -137 -102 -119 -132 -107 -166 -66 -70 -112 -166 -229 -214 -144 -0 -136 -166 -91 -54 -46 -78 -74 -62 -53 -38 -55 -82 -85 -76 -73 -63 -47
-0 -0 -0 -0 -0 -0 -0 -0 -0 -4 -38 -13 -46 -0 -97 -100 -68 -181 -136 -44 -55 -106 -130 -212 -214 -225 -184 -0 -259 -144 -95 -37 -58 -55 -46 -49 -68 -62 -52 -97 -74 -88 -104 -80
-0 -0 -0 -0 -0 -0 -0 -0 -0 -0 -43 -33 -60 -11 -62 -96 -194 -285 -152 -99 -51 -82 -116 -193 -238 -259 -255 -305 -0 -206 -178 -43 -67 -43 -51 -52 -72 -53 -44 -66 -98 -118 -123 -102
-0 -0 -0 -0 -0 -0 -0 -0 -0 -0 -0 -27 -57 -10 -114 -80 -223 -163 -254 -281 -43 -29 -64 -156 -221 -271 -262 -436 -602 -342 -243 -120 -92 -42 -79 -43 -70 -55 -46 -38 -80 -66 -73 -94
-0 -0 -0 -0 -0 -0 -0 -0 -0 -23 -10 -23 -15 -51 -24 -83 -26 -104 -312 -166 -77 -116 -62 -84 -213 -273 -301 -309 -526 -411 -281 -200 -110 -72 -73 -59 -75 -70 -55 -47 -57 -83 -69 -89
-0 -0 -0 -0 -0 -0 -0 -0 -0 -0 -0 -0 -13 -0 -73 -6 -0 -0 -4 -77 -116 -126 -213 -151 -138 -224 -309 -275 -427 -414 -277 -220 -118 -126 -79 -70 -81 -89 -73 -67 -56 -59 -99 -57
-0 -0 -0 -0 -0 -0 -0 -0 -0 -0 -0 -0 -0 -5 -105 -0 -0 -0 -0 -0 -0 -137 -155 -84 -63 -174 -237 -258 -278 -378 -242 -189 -150 -128 -91 -81 -78 -94 -97 -81 -84 -53 -93 -40
-0 -0 -0 -0 -0 -0 -0 -0 -0 -0 -15 -0 -16 -40 -30 -67 -0 -0 -60 -84 -183 -195 -265 -265 -152 -169 -193 -226 -248 -267 -214 -189 -152 -109 -80 -51 -58 -72 -84 -147 -112 -70 -80 -93
-34 -0 -0 -0 -0 -0 -0 -0 -0 -0 -0 -0 -0 -32 -38 -20 -0 -0 -103 -41 -143 -219 -292 -309 -258 -194 -134 -267 -228 -265 -239 -183 -170 -140 -90 -57 -61 -70 -89 -122 -169 -105 -77 -96
-0 -0 -0 -0 -0 -0 -0 -0 -0 -0 -0 -0 -0 -77 -132 -97 -0 -61 -51 -79 -154 -194 -248 -336 -350 -276 -177 -134 -206 -247 -192 -171 -175 -159 -121 -109 -95 -98 -107 -126 -145 -164 -86 -101
-0 -0 -18 -0 -0 -0 -0 -0 -0 -0 -0 -0 -39 -146 -158 -85 -128 -112 -91 -112 -181 -261 -312 -312 -369 -378 -316 -255 -187 -140 -150 -176 -168 -172 -165 -146 -107 -105 -141 -163 -151 -142 -161 -116
-0 -15 -19 -0 -56 -19 -0 -0 -0 -0 -168 -113 -149 -86 -148 -198 -173 -188 -130 -151 -209 -279 -369 -382 -365 -398 -423 -382 -298 -197 -107 -156 -157 -165 -169 -147 -135 -110 -139 -173 -158 -151 -152 -168
-70 -41 -49 -0 -115 -27 -44 -203 -148 -268 -206 -167 -176 -193 -195 -267 -279 -277 -189 -225 -293 -386 -438 -495 -515 -547 -492 -428 -355 -257 -176 -111 -124 -158 -145 -153 -113 -108 -108 -127 -141 -146 -149 -132
-0 -51 -51 -41 -50 -22 -142 -265 -277 -183 -225 -177 -259 -245 -127 -266 -389 -396 -280 -240 -368 -440 -487 -566 -670 -632 -573 -490 -355 -352 -319 -197 -86 -128 -151 -125 -111 -100 -86 -106 -120 -137 -106 -119
-0 -0 -0 -0 -80 -22 -76 -217 -256 -201 -112 -144 -197 -169 -329 -162 -245 -201 -229 -330 -375 -428 -463 -0 -0 -0 -0 -0 -725 -633 -433 -258 -97 -69 -135 -151 -115 -100 -104 -108 -108 -91 -95 -83
-0 -57 -0 -7 -51 -69 -142 -118 -221 -137 -75 -64 -79 -72 -159 -213 -176 -149 -139 -216 -299 -447 -0 -0 -0 -0 -0 -0 -0 -0 -606 -598 -696 -572 -98 -136 -146 -120 -100 -85 -78 -82 -56 -38
-87 -65 -0 -133 -0 -48 -144 -122 -133 -32 -109 -93 -61 -35 -34 -81 -102 -138 -147 -209 -337 -23 -0 -0 -0 -0 -0 -0 -0 -0 -0 -0 -0 -411 -502 -92 -123 -144 -89 -88 -75 -48 -41 -27
-59 -55 -65 -58 -17 -3 -40 -62 -64 -35 -39 -110 -103 -76 -29 -66 -168 -218 -0 -0 -0 -0 -0 -0 -0 -0 -0 -0 -0 -0 -0 -0 -0 -0 -585 -107 -89 -80 -68 -91 -72 -60 -38 -32
-0 -0 -74 -133 -171 -219 -95 -6 -9 -38 -65 -87 -85 -82 -67 -87 -158 -55 -0 -0 -0 -0 -0 -0 -0 -0 -0 -0 -0 -0 -0 -0 -0 -56 -650 -166 -65 -60 -82 -73 -73 -54 -40 -29
-1 -0 -0 -0 -0 -70 -40 -0 -0 -0 -0 -5 -58 -103 -150 -101 -174 -344 -196 -1 -0 -0 -0 -0 -0 -0 -0 -0 -0 -0 -0 -0 -0 -44 -527 -190 -101 -24 -38 -55 -47 -57 -51 -35
-0 -0 -0 -1 -0 -0 -0 -0 -0 -0 -0 -0 -0 -32 -109 -55 -139 -271 -110 -86 -0 -0 -0 -0 -0 -0 -0 -0 -0 -0 -0 -0 -0 -0 -646 -529 -319 -254 -161 -54 -56 -65 -68 -32
Wind_Speed
10 7 8 11 13 14 14 10 12 13 15 16 15 16 21 17 11 2 12 15 12 14 14 14 14 15 16 14 10 7 12 8 4 2 1 1 1 3 6 5 7 6 4 4
7 14 12 13 16 17 16 13 8 7 21 8 12 15 11 11 6 3 9 15 16 14 16 15 14 16 18 16 12 8 12 9 5 3 2 1 3 2 4 4 5 6 5 4
14 13 13 18 17 17 16 11 10 9 16 7 12 12 9 4 3 4 20 14 18 19 18 17 17 17 17 16 13 10 11 11 7 6 1 1 4 5 3 3 3 3 4 4
13 13 18 19 18 15 13 17 14 7 15 6 14 6 6 11 16 20 22 17 18 20 18 16 16 17 18 16 14 9 11 9 8 6 3 5 7 6 3 4 3 3 3 4
15 18 14 20 16 16 17 17 9 18 9 7 10 8 6 9 15 25 30 25 22 20 20 21 19 18 16 17 15 13 10 8 7 5 5 4 3 4 4 4 7 4 3 3
18 9 18 18 17 17 17 16 13 8 5 3 13 14 6 9 17 22 27 29 24 21 21 21 19 19 17 17 16 15 13 11 8 7 5 5 6 3 5 6 5 4 3 2
8 16 19 17 17 17 15 8 4 4 3 6 11 5 11 22 20 6 6 23 23 23 22 21 21 18 17 21 18 16 16 14 10 8 6 6 6 5 7 6 6 6 4 3
11 14 17 13 14 16 12 9 6 6 3 8 9 6 8 15 19 9 20 17 23 24 22 25 26 23 21 23 21 19 18 15 13 8 7 7 4 3 4 6 5 5 6 5
5 17 9 18 19 11 20 13 10 6 8 2 5 8 9 11 12 11 18 6 17 18 22 25 26 24 23 21 23 21 20 16 16 11 8 7 5 5 4 6 4 5 4 8
13 12 13 20 15 23 9 6 7 3 8 6 7 3 6 5 2 12 20 24 22 24 21 22 23 23 22 21 22 21 21 20 17 14 11 8 7 6 5 3 5 4 4 7
13 9 18 9 16 18 15 11 6 6 3 6 3 7 13 8 3 6 5 8 7 0 7 20 22 22 23 20 20 21 21 20 17 17 13 11 10 7 6 5 5 6 5 6
5 12 8 18 17 9 20 13 10 7 10 3 6 7 3 15 17 6 7 15 5 7 8 7 19 22 21 21 18 20 19 19 17 17 14 14 12 10 8 7 7 6 6 6
8 4 5 9 10 13 10 19 11 6 7 9 4 4 3 12 13 15 13 15 10 17 19 16 4 21 20 19 16 15 19 19 18 16 15 14 14 13 13 11 8 6 7 7
3 3 2 6 7 5 3 12 19 9 8 9 8 5 6 8 14 24 13 4 15 16 17 16 18 6 11 13 15 14 14 20 19 18 17 15 16 15 14 12 11 10 7 8
4 3 6 9 14 15 16 16 20 13 8 9 8 4 7 4 17 15 17 16 16 15 17 16 15 13 15 7 12 10 15 16 19 18 18 17 16 15 15 13 12 13 8 10
3 4 5 10 13 14 15 18 15 22 9 6 7 12 4 22 23 25 17 18 15 15 15 14 13 14 13 13 13 4 13 13 18 19 19 18 15 15 16 15 14 13 14 9
3 1 1 7 7 11 11 8 9 6 16 5 12 5 9 18 19 16 17 15 15 14 15 15 13 11 9 11 11 8 8 8 15 18 17 16 16 15 16 15 14 15 14 14
6 2 2 3 5 4 5 23 24 29 23 19 19 12 17 18 17 18 16 15 13 13 12 13 12 12 11 10 11 10 9 6 9 14 16 16 15 17 14 15 15 15 14 13
4 4 2 2 3 7 13 14 14 9 14 15 11 11 8 16 19 17 13 14 11 9 8 7 9 10 10 11 13 13 12 11 6 11 13 15 17 16 15 15 16 15 12 14
7 2 3 4 2 1 6 12 12 7 8 13 12 9 11 4 8 4 8 10 10 8 9 11 11 10 10 11 12 10 11 12 10 7 9 12 16 17 17 17 16 14 13 15
2 3 3 4 5 4 10 12 10 7 4 5 9 9 11 11 4 4 8 8 7 7 11 10 9 10 12 13 15 13 12 13 15 14 9 11 13 16 16 15 14 14 14 13
3 2 3 3 2 1 19 8 7 3 7 8 10 8 6 9 8 8 7 7 8 8 10 10 9 11 13 14 12 11 10 13 14 15 18 11 11 11 10 14 13 13 13 14
5 4 4 6 5 5 12 13 10 5 3 9 10 8 6 7 9 7 6 6 6 5 5 8 9 10 13 13 13 14 14 15 15 14 15 10 8 10 10 11 12 10 12 11
19 15 4 8 8 10 14 6 5 6 6 7 6 7 6 6 7 7 6 5 3 4 5 6 11 14 13 13 12 12 13 13 14 14 14 12 6 6 7 7 8 10 11 11
3 6 5 9 17 5 8 10 11 10 10 8 5 7 9 8 4 6 6 8 6 7 8 9 9 8 10 12 13 13 13 13 12 12 12 12 7 5 6 8 8 9 10 11
9 8 5 4 8 6 7 14 12 8 7 9 7 3 3 6 4 8 6 5 6 6 6 5 4 5 7 8 11 14 15 13 12 11 9 9 9 5 4 4 5 11 12 13
Wind_Direction
232 221 213 235 251 253 267 279 131 125 146 116 167 184 247 264 272 71 205 182 191 176 160 157 157 147 142 150 151 161 144 160 146 168 198 172 123 130 123 128 124 120 115 65
246 227 230 246 253 265 266 259 125 130 170 102 198 227 195 234 267 304 306 197 188 175 164 165 157 150 154 157 161 160 152 148 174 179 198 187 131 157 136 133 115 101 93 61
228 237 233 239 254 262 268 261 146 156 178 62 178 282 256 194 107 293 270 236 190 178 170 171 164 157 159 161 166 158 160 160 173 202 149 347 76 110 82 84 103 115 134 127
242 242 237 238 235 251 264 266 169 170 163 189 184 268 200 178 184 201 234 246 189 180 169 172 165 164 162 165 164 150 160 166 195 177 190 192 148 144 191 145 150 168 174 165
230 237 245 245 244 230 253 268 272 162 170 162 205 246 247 205 183 215 211 229 194 181 173 173 169 167 163 164 167 157 155 172 209 182 219 208 162 158 142 140 146 167 210 202
240 236 239 249 256 250 248 264 280 179 202 265 211 206 201 190 227 193 207 198 182 177 176 172 174 167 163 167 167 165 155 180 195 189 219 230 179 142 132 139 151 174 181 183
265 242 251 250 251 263 252 247 279 334 38 235 274 283 185 192 191 190 232 187 180 176 173 171 175 174 164 169 171 169 166 176 190 186 193 216 221 157 143 172 160 173 172 189
224 251 240 232 233 241 251 223 197 188 216 246 264 249 218 193 151 195 211 218 177 175 177 176 178 178 175 170 173 172 173 174 183 184 189 207 192 169 150 193 180 179 183 185
231 236 267 230 249 234 252 256 222 225 206 244 261 273 45 141 132 121 129 197 173 162 194 184 180 176 177 168 174 173 174 178 180 185 171 205 185 180 197 210 208 161 179 182
236 267 257 245 233 253 217 227 258 257 209 231 284 44 316 44 88 174 180 197 163 180 188 190 179 177 178 171 172 172 173 178 180 182 181 187 197 189 201 235 228 227 160 157
200 198 258 280 233 225 245 243 239 175 196 192 216 269 183 187 250 307 340 116 131 118 212 196 180 180 177 174 168 172 174 178 179 185 181 183 197 194 189 213 230 245 166 189
213 202 212 244 262 229 227 235 201 179 254 257 142 274 211 131 243 40 69 105 92 58 40 73 177 173 173 176 168 174 173 178 181 183 185 189 184 197 195 201 221 230 216 171
324 294 192 272 287 266 233 227 232 189 184 228 156 262 184 133 103 64 73 52 36 61 42 23 104 166 170 174 173 170 173 180 180 179 185 190 191 187 203 207 200 225 211 197
351 297 133 206 239 245 282 234 228 210 198 209 218 181 264 137 132 119 115 140 63 49 50 44 36 28 160 164 176 178 175 180 180 180 187 189 191 192 197 202 205 208 210 196
337 306 324 296 283 299 294 298 222 218 203 173 228 104 342 166 165 106 95 77 62 55 44 35 33 30 22 151 188 183 186 174 180 181 188 195 193 191 193 199 202 208 207 211
261 272 300 297 299 301 290 269 296 212 210 203 126 57 7 88 67 63 65 73 56 41 43 36 28 24 16 17 11 230 180 177 179 186 192 193 190 191 193 197 200 200 209 208
264 229 314 264 322 286 288 256 268 224 43 59 82 74 83 72 76 73 67 54 49 42 21 20 19 9 356 359 350 351 333 191 176 188 194 193 194 192 196 198 199 204 206 211
336 53 45 279 347 241 57 33 81 69 46 62 74 52 76 81 71 55 52 63 50 42 28 7 357 351 346 340 333 329 346 331 218 184 192 194 192 201 198 197 202 208 210 207
342 353 335 156 273 253 37 11 5 103 40 44 56 36 52 99 63 35 28 58 60 44 33 18 347 339 336 349 357 347 342 333 274 210 187 193 195 197 199 200 204 208 205 214
314 359 121 349 320 308 34 6 325 148 77 39 43 35 25 125 88 57 4 36 41 29 31 16 2 349 357 357 357 340 349 321 315 236 207 186 193 198 201 204 206 207 212 217
304 355 277 269 239 83 348 337 289 66 113 67 66 51 53 75 92 95 45 43 47 39 30 13 1 358 4 358 358 357 345 341 336 331 265 198 195 197 200 203 204 209 212 216
144 231 268 309 155 7 327 41 58 143 96 90 94 49 40 90 74 61 62 39 31 32 24 11 6 7 5 3 354 344 339 335 328 325 314 225 200 199 197 202 204 206 209 216
26 344 122 56 92 127 55 86 92 64 84 91 80 73 29 73 70 57 45 24 30 29 37 17 10 2 10 0 351 339 337 332 325 323 316 255 203 206 207 196 203 210 212 214
344 343 67 92 36 30 11 74 89 68 57 39 59 73 70 53 92 79 59 56 19 9 38 38 23 17 360 352 348 336 330 330 324 323 326 313 223 205 207 208 205 213 219 222
278 324 358 81 23 38 7 357 11 29 15 11 45 73 13 35 61 83 41 34 20 15 14 30 34 13 352 344 343 339 338 334 328 329 329 323 326 239 221 215 215 221 220 215
20 14 24 46 3 334 340 340 350 359 11 330 334 27 94 90 61 50 44 18 20 13 4 359 47 15 347 344 345 345 340 342 335 339 339 329 319 319 335 278 253 234 225 226